"Pseudo-MPEC" for 2018-065B = NORAD 43593 = Parker Solar Probe 2nd stage

Created 2018 Aug 13 13:40:08 UT using Find_Orb

Click here for an explanation of pseudo-MPECs

 
 Astrometry: 
2018-065B     CK180812:090232   13 48.000   -25 24.03                        E12
2018-065B     CK180812:090332   13 49.277   -25 20.43           x            E12
2018-065B     CK180812:090440   13 51.056   -25 16.56                        E12
2018-065B     CK180812:090540   13 52.275   -25 13.33           x            E12
2018-065B     CK180812:090551   13 52.493   -25 12.45           x            E12
2018-065B     CK180812:090651   13 53.597   -25 09.56           x            E12
2018-065B     CK180812:090758   13 55.311   -25 06.16           x            E12
2018-065B     CK180812:090858   13 56.456   -25 02.59           x            E12
2018-065B     CK180812:090911   13 57.051   -25 02.03                        E12
2018-065B     CK180812:091011   13 58.136   -24 59.19                        E12
2018-065B     CK180812:091120   13 59.384   -24 55.36           x            E12
2018-065B     CK180812:091220   14 00.395   -24 52.54           x            E12
2018-065B     CK180812:091235   14 00.572   -24 52.18           x            E12
2018-065B     CK180812:091335   14 02.018   -24 49.13                        E12
2018-065B     CK180812:091441   14 03.132   -24 45.58                        E12
2018-065B     CK180812:091541   14 04.106   -24 43.21                        E12
2018-065B     CK180812:091554   14 04.251   -24 42.39                        E12
2018-065B     CK180812:091654   14 05.217   -24 40.00                        E12
2018-065B     CK180812:091759   14 06.265   -24 36.59                        E12
2018-065B     CK180812:091859   14 07.190   -24 34.28                        E12
2018-065B     CK180812:091912   14 07.327   -24 33.32                        E12
2018-065B     CK180812:092012   14 08.255   -24 31.16                        E12
2018-065B     CK180812:092121   14 09.267   -24 28.15                        E12
2018-065B     CK180812:092221   14 10.150   -24 25.52                        E12
2018-065B     CK180812:092232   14 10.257   -24 25.21                        E12
2018-065B     CK180812:092332   14 11.125   -24 23.00                        E12
2018-065B     CK180812:092438   14 12.073   -24 20.15                        E12
2018-065B     CK180812:092538   14 12.518   -24 17.58           x            E12
2018-065B     CK180812:092553   14 13.052   -24 17.20           x            E12
2018-065B     CK180812:092653   14 13.479   -24 15.23           x            E12
2018-065B     CK180812:092800   14 14.400   -24 12.26                        E12
2018-065B     CK180812:093000   14 16.004   -24 08.13           x            E12
2018-065B     CK180812:093109   14 16.470   -24 05.47                        E12
2018-065B     CK180812:093209   14 17.260   -24 03.37                        E12
2018-065B     CK180812:093221   14 17.356   -24 03.08                        E12
2018-065B     CK180812:093321   14 18.126   -24 01.10                        E12
2018-065B     CK180812:093429   14 18.565   -23 58.47                        E12
2018-065B     CK180812:093529   14 19.315   -23 56.50                        E12
2018-065B     CK180812:093542   14 19.398   -23 56.22                        E12
2018-065B     CK180812:093642   14 20.136   -23 54.32                        E12
2018-065B     CK180812:093747   14 20.545   -23 52.17                        E12
2018-065B     CK180812:093847   14 21.253   -23 50.33                        E12

Station data:
(E12) Siding Spring Survey  (S31.273455 E149.064200)  Australia/NSW.
   Observers B. M. Africano, E. J. Christensen, D. C. Fuls, A. R. Gibbs, A.
   D. Grauer, H. Groeller, J. A. Johnson, R. A. Kowalski, S. M. Larson, G. J.
   Leonard, R. L. Seaman, F. C. Shelly. 0.5-m Uppsala Schmidt + CCD.

Orbital elements:  2018-065B = NORAD 43593 = Parker Solar Probe 2nd stage 
   Perigee 2018 Aug 12.336346 +/- 0.00164 TT =  8:04:20 (JD 2458342.836346)
Epoch 2018 Aug 12.5 TT = JDT 2458343.0                        Gray
q  6451.150603 +/- 888              (J2000 equator)
                                    Peri.  197.625861 +/- 4.9
                                    Node   267.527726 +/- 0.21
e   1.92866583 +/- 0.296            Incl.   32.262517 +/- 0.49
29 of 42 observations 2018 Aug. 12 (36.3 min); mean residual 39".602

Orbital elements:  2018-065B = NORAD 43593 = Parker Solar Probe 2nd stage  (heliocentric)
   Perihelion 2018 Nov 27.676397 +/- 4.18 TT = 16:14:00 (JD 2458450.176397)
Epoch 2018 Aug 14.0 TT = JDT 2458344.5   Earth MOID: 0.0001   Ve: 0.0111
M 180.516339 +/- 0.45               Me: 0.0354                Gray
n   1.698427136 +/- 0.0646          Peri.    1.114221 +/- 0.25
a   0.695725789 +/- 0.0176          Node   139.173279 +/- 0.051
e   0.45669546 +/- 0.0369           Incl.    0.656160 +/- 0.20
P   0.58/211.96d      U 10.9
q 0.377990974 +/- 0.0352    Q 1.013460604 +/- 4.2e-5
29 of 42 observations 2018 Aug. 12 (36.3 min); mean residual 39".602
Residuals in arcseconds: 
180812 E12 16.1+ 4.14-    180812 E12 35.0+ 16.1+    180812 E12( 142+ .328+)
180812 E12( 158- 5.39+)   180812 E12 10.4+ 9.22-    180812 E12( 115- 19.4-)
180812 E12 34.1- 7.59+    180812 E12 45.7- 4.07+    180812 E12 20.7- 7.55+
180812 E12( 167- 1.99+)   180812 E12 48.2- 16.5-    180812 E12( 156+ 8.62-)
180812 E12( 192- 18.6+)   180812 E12 24.4- 13.7+    180812 E12 93.4- 3.11+
180812 E12( 374- 3.47-)   180812 E12 14.8- 5.70-    180812 E12 19.9+ 2.77+
180812 E12( 143- 13.8-)   180812 E12 61.9- 18.0+    180812 E12 6.88- 4.85-
180812 E12( 219- 11.9+)   180812 E12 24.9- 7.10-    180812 E12  105+ 9.94-
180812 E12 52.4+ 5.07+    180812 E12 3.63- 1.12-    180812 E12  111- 9.85+
180812 E12 32.5- 9.07-    180812 E12 37.4+ 7.65+    180812 E12 8.90+ 8.35+
180812 E12(92.4- 12.5+)   180812 E12 1.90+ .795-    180812 E12 29.0- .537-
180812 E12( 174- 3.96+)   180812 E12 51.7+ 14.2-    180812 E12 94.3+ 3.95-
180812 E12( 252- 18.4-)   180812 E12  121+ .968-    180812 E12 81.4- .068-
180812 E12 55.7+ 9.22-    180812 E12( 142- 12.4+)   180812 E12 38.8+ 3.29-

Ephemerides (geocentric):
Date (UTC) HH   RA              Dec         delta  elong  " sig PA
---- -- -- --  -------------   -----------  ------ -----  ---- ---
2018 08 13 14  15 21 18.290   -20 53 35.94  843350  92.8 1532  79
2018 08 13 15  15 21 24.041   -20 52 59.02  870825  92.8 1538  79
2018 08 13 16  15 21 29.446   -20 52 24.39  898292  92.8 1544  79
2018 08 13 17  15 21 34.536   -20 51 51.83  925752  92.8 1549  78
2018 08 13 18  15 21 39.340   -20 51 21.18  953206  92.7 1554  78
2018 08 13 19  15 21 43.880   -20 50 52.26  980653  92.7 1559  78
2018 08 13 20  15 21 48.179   -20 50 24.94  .00674  92.7 1564  78
2018 08 13 21  15 21 52.255   -20 49 59.10  .00692  92.7 1568  78
2018 08 13 22  15 21 56.127   -20 49 34.61  .00711  92.6 1572  78
2018 08 13 23  15 21 59.810   -20 49 11.38  .00729  92.6 1576  78
2018 08 14 00  15 22 03.317   -20 48 49.31  .00747  92.6 1580  78
2018 08 14 01  15 22 06.662   -20 48 28.32  .00766  92.5 1584  78
2018 08 14 02  15 22 09.855   -20 48 08.34  .00784  92.5 1587  78
2018 08 14 03  15 22 12.908   -20 47 49.29  .00802  92.5 1591  78
2018 08 14 04  15 22 15.829   -20 47 31.12  .00820  92.5 1594  78
2018 08 14 05  15 22 18.628   -20 47 13.76  .00839  92.4 1597  78
2018 08 14 06  15 22 21.311   -20 46 57.17  .00857  92.4 1600  78
2018 08 14 07  15 22 23.887   -20 46 41.30  .00875  92.4 1603  78
2018 08 14 08  15 22 26.362   -20 46 26.09  .00894  92.3 1606  78
2018 08 14 09  15 22 28.742   -20 46 11.52  .00912  92.3 1609  78
2018 08 14 10  15 22 31.033   -20 45 57.54  .00930  92.3 1611  78
2018 08 14 11  15 22 33.240   -20 45 44.13  .00949  92.2 1614  78
2018 08 14 12  15 22 35.367   -20 45 31.24  .00967  92.2 1616  78
2018 08 14 13  15 22 37.419   -20 45 18.85  .00985  92.2 1619  78
2018 08 14 14  15 22 39.401   -20 45 06.93  .01004  92.1 1621  78
2018 08 14 15  15 22 41.315   -20 44 55.46  .01022  92.1 1623  78
2018 08 14 16  15 22 43.166   -20 44 44.41  .01040  92.1 1625  78
2018 08 14 17  15 22 44.956   -20 44 33.76  .01058  92.0 1627  78
2018 08 14 18  15 22 46.689   -20 44 23.49  .01077  92.0 1629  78
2018 08 14 19  15 22 48.368   -20 44 13.58  .01095  92.0 1631  78
2018 08 14 20  15 22 49.996   -20 44 04.02  .01113  91.9 1633  78
2018 08 14 21  15 22 51.574   -20 43 54.78  .01131  91.9 1635  78
2018 08 14 22  15 22 53.105   -20 43 45.86  .01150  91.9 1637  78
2018 08 14 23  15 22 54.591   -20 43 37.23  .01168  91.8 1639  78
2018 08 15 00  15 22 56.035   -20 43 28.88  .01186  91.8 1640  77
2018 08 15 01  15 22 57.438   -20 43 20.80  .01205  91.8 1642  77
2018 08 15 02  15 22 58.802   -20 43 12.98  .01223  91.7 1644  77
2018 08 15 03  15 23 00.129   -20 43 05.41  .01241  91.7 1645  77
2018 08 15 04  15 23 01.420   -20 42 58.07  .01259  91.6 1647  77
2018 08 15 05  15 23 02.678   -20 42 50.96  .01278  91.6 1648  77
2018 08 15 06  15 23 03.902   -20 42 44.06  .01296  91.6 1650  77
2018 08 15 07  15 23 05.095   -20 42 37.37  .01314  91.5 1651  77
2018 08 15 08  15 23 06.258   -20 42 30.87  .01332  91.5 1653  77
2018 08 15 09  15 23 07.392   -20 42 24.57  .01351  91.5 1654  77
2018 08 15 10  15 23 08.498   -20 42 18.45  .01369  91.4 1655  77
2018 08 15 11  15 23 09.578   -20 42 12.50  .01387  91.4 1657  77
2018 08 15 12  15 23 10.632   -20 42 06.72  .01405  91.4 1658  77
2018 08 15 13  15 23 11.661   -20 42 01.11  .01424  91.3 1659  77
2018 08 15 14  15 23 12.666   -20 41 55.64  .01442  91.3 1660  77
2018 08 15 15  15 23 13.649   -20 41 50.33  .01460  91.2 1662  77
2018 08 15 16  15 23 14.609   -20 41 45.16  .01478  91.2 1663  77
2018 08 15 17  15 23 15.548   -20 41 40.13  .01497  91.2 1664  77
2018 08 15 18  15 23 16.466   -20 41 35.23  .01515  91.1 1665  77
2018 08 15 19  15 23 17.365   -20 41 30.46  .01533  91.1 1666  77
2018 08 15 20  15 23 18.244   -20 41 25.81  .01551  91.1 1667  77
